This is the latest recevied weather packets stored in our database for station/object WX5II-15. If no packets are shown the sender has not sent any weather packets the latest 10 day(s).
| Time | Temp. | Humidity | Pressure | Rain* | Wind** | Luminosity | Snow |
|---|---|---|---|---|---|---|---|
| 1788036448 | 38.33° C | 39% | 1006 hPa | 0 mm | - | - | - |
| 1788035847 | 37.78° C | 41% | 1006.4 hPa | 0 mm | - | - | - |
| 1788035246 | 37.78° C | 41% | 1006.4 hPa | 0 mm | - | - | - |
| 1788034646 | 37.22° C | 43% | 1006.7 hPa | 0 mm | - | - | - |
| 1788034045 | 37.78° C | 40% | 1006.7 hPa | 0 mm | - | - | - |
| 1788033444 | 38.89° C | 38% | 1006.7 hPa | 0 mm | - | - | - |
| 1788032844 | 38.33° C | 40% | 1007.1 hPa | 0 mm | - | - | - |
| 1788032243 | 38.33° C | 40% | 1007.1 hPa | 0 mm | - | - | - |
| 1788031643 | 37.22° C | 41% | 1007.4 hPa | 0 mm | - | - | - |
| 1788031043 | 37.22° C | 41% | 1007.4 hPa | 0 mm | - | - | - |
| 1788030442 | 36.11° C | 42% | 1007.7 hPa | 0 mm | - | - | - |
| 1788029841 | 37.22° C | 42% | 1007.7 hPa | 0 mm | - | - | - |
| 1788029240 | 37.22° C | 43% | 1007.7 hPa | 0 mm | - | - | - |
| 1788028640 | 36.11° C | 43% | 1008.1 hPa | 0 mm | - | - | - |
| 1788028039 | 36.67° C | 45% | 1008.1 hPa | 0 mm | - | - | - |
| 1788027439 | 36.11° C | 45% | 1008.4 hPa | 0 mm | - | - | - |
| 1788026838 | 35° C | 46% | 1008.4 hPa | 0 mm | - | - | - |
| 1788026238 | 35° C | 48% | 1008.4 hPa | 0 mm | - | - | - |
| 1788025637 | 35° C | 48% | 1008.8 hPa | 0 mm | - | - | - |
| 1788025037 | 35° C | 49% | 1008.8 hPa | 0 mm | - | - | - |
| 1788024437 | 35° C | 48% | 1008.8 hPa | 0 mm | - | - | - |
| 1788023835 | 35° C | 50% | 1009.1 hPa | 0 mm | - | - | - |
| 1788023235 | 33.89° C | 53% | 1009.1 hPa | 0 mm | - | - | - |
| 1788022634 | 33.89° C | 54% | 1009.1 hPa | 0 mm | - | - | - |
| 1788022034 | 33.33° C | 55% | 1009.4 hPa | 0 mm | - | - | - |
* Rain latest hour (hover to see other rain measurements)
** Current wind speed in m/s (hover to see current wind gust speed)